Location: Newark
(51.3318°N, 0.0053°E)
Time: 07:27:11
(UTC+00:00)

POLYITAN 1 - Visible Passes

Search period start: 25 June 2022 00:00
Search period end: 05 July 2022 00:00
Orbit: 585 x 607 km, 98.0° (Epoch: 24 June)

Date Brightness Start Highest point End Pass type
(mag) Time Alt. Az. Time Alt. Az. Time Alt. Az.
25 Jun ? 01:54:38 10° NNE 01:58:52 77° ESE 02:02:30 14° S visible
26 Jun ? 00:30:48 10° ENE 00:32:33 12° E 00:34:18 10° ESE visible
26 Jun ? 02:04:32 10° NNE 02:08:46 86° WNW 02:12:30 13° SSW visible
27 Jun ? 00:40:05 10° NE 00:42:35 15° E 00:45:04 10° SE visible
27 Jun ? 02:14:28 10° N 02:18:39 69° WNW 02:22:30 12° SSW visible
28 Jun ? 00:49:35 10° NE 00:52:34 19° E 00:55:34 10° SE visible
28 Jun ? 02:24:24 10° N 02:28:32 56° WNW 02:32:29 11° SSW visible
29 Jun ? 00:59:11 10° NE 01:02:34 23° E 01:05:49 11° SE visible
29 Jun ? 02:34:21 10° N 02:38:23 45° WNW 02:42:26 10° SW visible
30 Jun ? 01:08:52 10° NE 01:12:31 28° E 01:15:47 12° SSE visible
30 Jun ? 02:44:20 10° N 02:48:13 37° WNW 02:52:08 10° SW visible
01 Jul ? 01:18:36 10° NNE 01:22:29 34° E 01:25:46 13° SSE visible
01 Jul ? 02:54:19 10° N 02:58:03 31° WNW 03:01:46 10° SW visible
02 Jul ? 01:28:21 10° NNE 01:32:25 42° E 01:35:44 14° SSE visible
03 Jul ? 01:38:09 10° NNE 01:42:19 52° E 01:45:41 15° S visible
04 Jul ? 01:47:59 10° NNE 01:52:13 65° ESE 01:55:39 15° S visible
